(243757) = 2006 SM56 = 2000 QZ198

Discovered at Socorro on 2000-08-29 by LINEAR.

Orbit

Orbit type: Main Belt

Note: WebGL enabled browser required.

epoch2023-09-13.0
epoch JD2460200.5
perihelion date2023-07-08.75456
perihelion JD2460134.25456
argument of perihelion (°)198.29704
ascending node (°)150.51806
inclination (°)16.28365
eccentricity0.2716655
perihelion distance (AU)2.3133925
Tisserand w.r.t. Jupiter3.1
ΔV w.r.t. Earth (km/sec)10.8
semimajor axis (AU)3.1762776
mean anomaly (°)11.53406
mean daily motion (°/day)0.17411100
aphelion distance (AU)4.039
period (years)5.66
P-vector [x]0.97480833
P-vector [y]-0.15301228
P-vector [z]-0.16228358
Q-vector [x]0.17523150
Q-vector [y]0.97553171
Q-vector [z]0.13278478
absolute magnitude15.42
phase slope0.15
uncertainty0
referenceMPEC 2024-B03
observations used575
oppositions15
arc length (days)8539
first opposition used2000
last opposition used2024
residual rms (arc-secs)0.62
perturbers coarse indicatorM-v
perturbers precise indicator003Ek
first observation date used2000-08-29.0
last observation date used2024-01-15.0
computer nameMPCLINUX
JD of orbit computation2456700.464696
perihelion JD uncertainty (days)9.3073E-05
argument of perihelion uncertainty (°)2.9837E-05
ascending node uncertainty (°)2.4667E-05
inclination uncertainty (°)6.0532E-06
eccentricity uncertainty 5.1769E-08
perihelion distance uncertainty (AU)1.6329E-07
Minimum Orbit Intersection Distances (in AU)
for orbit epoch: 2460200.5, reference: E2024-B03
Mercury1.93181
Venus1.58647
Earth1.31081
Mars0.93454
Jupiter1.38915
Saturn5.32536
Uranus14.4187
Neptune26.5188

Observations

579 total observations over interval: 2000 08 29.28336 – 2024 01 15.109471
These data are available for download (format description).

Date (UT) J2000 RA J2000 Dec Magn Location Ref
2000 08 29.28336 23 01 39.91 -10 53 55.1 18.5   704 – Lincoln Laboratory ETS, New Mexico MPS 18374
2000 08 29.29681 23 01 39.43 -10 54 05.7 18.4   704 – Lincoln Laboratory ETS, New Mexico MPS 18374
2000 08 29.31024 23 01 38.94 -10 54 15.3 18.2   704 – Lincoln Laboratory ETS, New Mexico MPS 18374
2000 08 29.32368 23 01 38.48 -10 54 26.5 18.5   704 – Lincoln Laboratory ETS, New Mexico MPS 18374
2000 08 29.33716 23 01 37.98 -10 54 35.8 18.2   704 – Lincoln Laboratory ETS, New Mexico MPS 18374
2000 09 05.26634 22 57 42.59 -12 22 08.1 18.4   704 – Lincoln Laboratory ETS, New Mexico MPS 18374
2000 09 05.27952 22 57 42.06 -12 22 18.3 18.6   704 – Lincoln Laboratory ETS, New Mexico MPS 18374
2000 09 05.29284 22 57 41.58 -12 22 28.3 18.7   704 – Lincoln Laboratory ETS, New Mexico MPS 18374
2000 09 05.30622 22 57 41.09 -12 22 39.6 19.2   704 – Lincoln Laboratory ETS, New Mexico MPS 18374
2000 09 05.31943 22 57 40.57 -12 22 48.2 19.2   704 – Lincoln Laboratory ETS, New Mexico MPS 18374
2000 09 24.18957 22 47 52.15 -15 51 32.4 18.1   704 – Lincoln Laboratory ETS, New Mexico MPS 34324
2000 09 24.20563 22 47 51.66 -15 51 40.7 18.5   704 – Lincoln Laboratory ETS, New Mexico MPS 34324
2000 09 24.22083 22 47 51.28 -15 51 49.4 18.8   704 – Lincoln Laboratory ETS, New Mexico MPS 34324
2000 09 24.23683 22 47 50.82 -15 51 57.4 18.5   704 – Lincoln Laboratory ETS, New Mexico MPS 34324
2000 09 24.25303 22 47 50.39 -15 52 06.5 18.7   704 – Lincoln Laboratory ETS, New Mexico MPS 34324
2000 10 02.20787 22 45 11.85 -16 56 56.7 17.9   704 – Lincoln Laboratory ETS, New Mexico MPS 34324
2000 10 02.22401 22 45 11.55 -16 57 03.5 18.5   704 – Lincoln Laboratory ETS, New Mexico MPS 34324
2000 10 02.23991 22 45 11.36 -16 57 10.3 18.4   704 – Lincoln Laboratory ETS, New Mexico MPS 34324
2000 10 02.25504 22 45 11.00 -16 57 17.1 18.4   704 – Lincoln Laboratory ETS, New Mexico MPS 34324
2006 09 19.39059 02 06 38.95 -06 33 48.8 18.9 V 703 – Catalina Sky Survey MPS 179644
2006 09 19.40123 02 06 38.84 -06 33 57.0 18.7 V 703 – Catalina Sky Survey MPS 179644
2006 09 19.41186 02 06 38.66 -06 34 04.6 18.7 V 703 – Catalina Sky Survey MPS 179644
2006 09 21.37278 02 06 08.73 -06 56 32.5 18.5 R 699 – Lowell Observatory-LONEOS MPS 179644
2006 09 21.39473 02 06 08.25 -06 56 47.5   699 – Lowell Observatory-LONEOS MPS 179644
2006 09 21.41667 02 06 07.91 -06 57 02.5   699 – Lowell Observatory-LONEOS MPS 179644
2006 09 21.43862 02 06 07.46 -06 57 18.2   699 – Lowell Observatory-LONEOS MPS 179644
2006 09 24.34655 02 05 12.46 -07 30 37.4 18.5 R 699 – Lowell Observatory-LONEOS MPS 181285
2006 09 24.36844 02 05 11.98 -07 30 50.4   699 – Lowell Observatory-LONEOS MPS 181285
2006 09 24.39036 02 05 11.48 -07 31 05.2   699 – Lowell Observatory-LONEOS MPS 181285
2006 09 24.41231 02 05 10.92 -07 31 21.1   699 – Lowell Observatory-LONEOS MPS 181285
2006 09 26.38201 02 04 26.76 -07 53 47.3 18.6 V 703 – Catalina Sky Survey MPS 181285
2006 09 26.39082 02 04 26.58 -07 53 52.6 18.6 V 703 – Catalina Sky Survey MPS 181285
2006 09 26.39959 02 04 26.29 -07 53 59.0 18.7 V 703 – Catalina Sky Survey MPS 181286
2006 09 26.40836 02 04 26.11 -07 54 04.9 18.4 V 703 – Catalina Sky Survey MPS 181286
2006 10 04.34235 02 00 39.74 -09 21 28.6 18.5 V 703 – Catalina Sky Survey MPS 182870
2006 10 04.34765 02 00 39.52 -09 21 32.9 19.1 V 703 – Catalina Sky Survey MPS 182870
2006 10 04.35298 02 00 39.34 -09 21 36.2 18.9 V 703 – Catalina Sky Survey MPS 182870
2006 10 04.35839 02 00 39.20 -09 21 39.8 18.5 V 703 – Catalina Sky Survey MPS 182870
2006 10 10.38908 01 57 06.02 -10 22 36.3 18.5 R 644 – Palomar Mountain/NEAT MPS 182726
2006 10 10.40943 01 57 05.19 -10 22 48.0 18.6 R 644 – Palomar Mountain/NEAT MPS 182726
2006 10 10.43348 01 57 04.26 -10 23 01.8 18.4 R 644 – Palomar Mountain/NEAT MPS 182726
2006 10 11.30018 01 56 31.73 -10 31 14.7 18.5 R 644 – Palomar Mountain/NEAT MPS 182726
2006 10 11.32217 01 56 30.86 -10 31 27.3 18.3 R 644 – Palomar Mountain/NEAT MPS 182726
2006 10 11.34300 01 56 30.02 -10 31 38.9 18.4 R 644 – Palomar Mountain/NEAT MPS 182726
2006 10 21.27170 01 49 53.58 -11 53 16.6 18.8 V 703 – Catalina Sky Survey MPS 183884
2006 10 21.28146 01 49 53.14 -11 53 21.0 18.9 V 703 – Catalina Sky Survey MPS 183884
2006 10 21.29116 01 49 52.71 -11 53 26.0 18.7 V 703 – Catalina Sky Survey MPS 183884
2006 10 21.30089 01 49 52.32 -11 53 29.9 18.7 V 703 – Catalina Sky Survey MPS 183884
2006 10 31.26513 01 43 20.89 -12 47 43.1 18.9 V 703 – Catalina Sky Survey MPS 185227
2006 10 31.27167 01 43 20.60 -12 47 44.3 19.1 V 703 – Catalina Sky Survey MPS 185227
2006 10 31.27818 01 43 20.31 -12 47 46.2 19.0 V 703 – Catalina Sky Survey MPS 185227
2006 10 31.28472 01 43 20.10 -12 47 47.7 19.0 V 703 – Catalina Sky Survey MPS 185227
2006 12 22.12193 01 37 47.74 -10 08 17.7 19.8 V 703 – Catalina Sky Survey MPS 191791
2006 12 22.12843 01 37 48.00 -10 08 11.2 20.0 V 703 – Catalina Sky Survey MPS 191791
2006 12 22.13490 01 37 48.28 -10 08 08.7 20.9 V 703 – Catalina Sky Survey MPS 191791
2006 12 22.14137 01 37 48.32 -10 08 06.9 19.4 V 703 – Catalina Sky Survey MPS 191791
2009 03 15.12363 10 53 30.89 +12 18 25.2 21.5 V 691 – Steward Observatory, Kitt Peak-Spacewatch MPS 280003
2009 03 15.14023 10 53 30.21 +12 18 31.3 21.4 V 691 – Steward Observatory, Kitt Peak-Spacewatch MPS 280003
2009 03 15.15683 10 53 29.65 +12 18 38.0 20.6 V 691 – Steward Observatory, Kitt Peak-Spacewatch MPS 280003
2009 03 26.12123 10 46 55.60 +13 18 27.2 21.6 V 691 – Steward Observatory, Kitt Peak-Spacewatch MPS 281195
2009 03 26.14536 10 46 54.86 +13 18 34.6 21.5 V 691 – Steward Observatory, Kitt Peak-Spacewatch MPS 281195
2009 03 26.16948 10 46 54.04 +13 18 41.8 21.7 V 691 – Steward Observatory, Kitt Peak-Spacewatch MPS 281195
2010 01 22.370850 14 14 31.735 -00 34 08.04   C51 – WISE MPS 903708
2010 01 22.503154 14 14 36.01 -00 33 54.7   C51 – WISE MPS 334755
2010 01 22.503281 14 14 36.125 -00 33 52.85   C51 – WISE MPS 903708
2010 01 22.635586 14 14 40.29 -00 33 38.5   C51 – WISE MPS 334755
2010 01 22.701674 14 14 42.54 -00 33 33.8   C51 – WISE MPS 334755
2010 01 22.834105 14 14 46.71 -00 33 16.0   C51 – WISE MPS 334755
2010 01 22.966410 14 14 50.97 -00 33 03.8   C51 – WISE MPS 334755
2010 05 13.18644 13 47 13.74 +08 44 13.2 20.7 V G96 – Mt. Lemmon Survey MPS 326299
2010 05 13.19172 13 47 13.56 +08 44 13.6 20.2 V G96 – Mt. Lemmon Survey MPS 326299
2010 05 13.19349 13 47 13.52 +08 44 13.3 20.7 V G96 – Mt. Lemmon Survey MPS 326299
2010 05 13.19888 13 47 13.27 +08 44 14.1 21.1 V G96 – Mt. Lemmon Survey MPS 326299
2010 05 13.20068 13 47 13.27 +08 44 14.3 20.9 V G96 – Mt. Lemmon Survey MPS 326299
2010 05 13.20603 13 47 13.02 +08 44 15.1 20.9 V G96 – Mt. Lemmon Survey MPS 326299
2010 05 13.20779 13 47 13.05 +08 44 15.1 20.8 V G96 – Mt. Lemmon Survey MPS 326299
2010 05 13.21316 13 47 12.73 +08 44 15.6 20.5 V G96 – Mt. Lemmon Survey MPS 326299
2010 07 06.669625 13 37 58.03 +07 00 43.8   C51 – WISE MPS 337256
2010 07 06.801929 13 38 00.29 +07 00 02.3   C51 – WISE MPS 337256
2010 07 06.934233 13 38 02.48 +06 59 25.3   C51 – WISE MPS 337256
2010 07 07.066536 13 38 04.71 +06 58 43.7   C51 – WISE MPS 337257
2010 07 07.198840 13 38 06.91 +06 58 03.7   C51 – WISE MPS 337257
2010 07 07.264928 13 38 08.09 +06 57 41.4   C51 – WISE MPS 337257
2010 07 07.331144 13 38 09.16 +06 57 23.7   C51 – WISE MPS 337257
2010 07 07.397231 13 38 10.22 +06 57 00.0   C51 – WISE MPS 337257
2010 07 07.529536 13 38 12.51 +06 56 21.9   C51 – WISE MPS 337257
2010 07 07.661839 13 38 14.83 +06 55 41.9   C51 – WISE MPS 337257
2010 07 07.794144 13 38 17.17 +06 54 59.3   C51 – WISE MPS 337257
2011 06 30.45448 18 47 44.371 -03 06 33.92 20.0 g F51 – Pan-STARRS 1, Haleakala MPS 386541
2011 06 30.46477 18 47 43.869 -03 06 36.17 20.0 g F51 – Pan-STARRS 1, Haleakala MPS 386541
2011 06 30.47602 18 47 43.313 -03 06 38.65 19.6 r F51 – Pan-STARRS 1, Haleakala MPS 386541
2011 06 30.48582 18 47 42.841 -03 06 40.71 19.6 r F51 – Pan-STARRS 1, Haleakala MPS 386541
2011 07 09.38638 18 40 38.323 -03 46 27.30 19.3 r F51 – Pan-STARRS 1, Haleakala MPS 387744
2011 07 09.46708 18 40 34.323 -03 46 52.92 19.5 g F51 – Pan-STARRS 1, Haleakala MPS 387744
2011 07 09.47672 18 40 33.848 -03 46 56.02 19.6 g F51 – Pan-STARRS 1, Haleakala MPS 387744
